EN

Hourly Weather Boyarkovo

Today, 16 April, Friday

Time Temperature Precipitation Wind Pressure Humidity
00:00 +12°C° 0.3 mm 2 mps 742 mmHg 80%
01:00 +12°C° 0 mm 2 mps 742 mmHg 82%
02:00 +10°C° 0 mm 2 mps 743 mmHg 83%
03:00 +10°C° 0 mm 2 mps 743 mmHg 84%
04:00 +10°C° 0 mm 2 mps 743 mmHg 85%
05:00 +9°C° 0 mm 2 mps 743 mmHg 87%
06:00 +9°C° 0 mm 3 mps 744 mmHg 89%
07:00 +10°C° 0 mm 3 mps 744 mmHg 84%
08:00 +11°C° 0 mm 4 mps 744 mmHg 80%
09:00 +12°C° 0 mm 4 mps 744 mmHg 76%
10:00 +12°C° 0 mm 4 mps 745 mmHg 73%
11:00 +13°C° 0 mm 5 mps 745 mmHg 70%
12:00 +14°C° 0 mm 5 mps 745 mmHg 68%
13:00 +14°C° 0.2 mm 5 mps 745 mmHg 68%
14:00 +14°C° 0.2 mm 5 mps 745 mmHg 68%
15:00 +14°C° 0.2 mm 5 mps 745 mmHg 68%
16:00 +14°C° 1 mm 5 mps 745 mmHg 70%
17:00 +14°C° 1 mm 5 mps 744 mmHg 73%
18:00 +13°C° 1 mm 5 mps 744 mmHg 76%
19:00 +12°C° 3.8 mm 4 mps 745 mmHg 81%
20:00 +11°C° 3.8 mm 4 mps 745 mmHg 86%
21:00 +10°C° 3.8 mm 4 mps 745 mmHg 91%
22:00 +10°C° 0.6 mm 4 mps 746 mmHg 92%
23:00 +10°C° 0.6 mm 4 mps 746 mmHg 93%

Tomorrow, 17 April, Saturday

Time Temperature Precipitation Wind Pressure Humidity
00:00 +10°C° 0.6 mm 4 mps 746 mmHg 94%
01:00 +8°C° 0 mm 4 mps 746 mmHg 94%
02:00 +8°C° 0 mm 5 mps 746 mmHg 95%
03:00 +8°C° 0 mm 5 mps 746 mmHg 95%
04:00 +7°C° 0.1 mm 5 mps 746 mmHg 95%
05:00 +7°C° 0.1 mm 5 mps 746 mmHg 94%
06:00 +7°C° 0.1 mm 6 mps 746 mmHg 94%
07:00 +7°C° 0.1 mm 6 mps 746 mmHg 91%
08:00 +8°C° 0.1 mm 6 mps 746 mmHg 88%
09:00 +8°C° 0.1 mm 7 mps 746 mmHg 86%
10:00 +9°C° 0 mm 7 mps 746 mmHg 80%
11:00 +11°C° 0 mm 7 mps 746 mmHg 74%
12:00 +12°C° 0 mm 8 mps 746 mmHg 68%
13:00 +13°C° 0 mm 8 mps 746 mmHg 66%
14:00 +13°C° 0 mm 8 mps 745 mmHg 63%
15:00 +15°C° 0 mm 8 mps 745 mmHg 61%
16:00 +15°C° 0.4 mm 8 mps 745 mmHg 63%
17:00 +13°C° 0.4 mm 8 mps 745 mmHg 65%
18:00 +12°C° 0.4 mm 8 mps 745 mmHg 67%
19:00 +11°C° 0.7 mm 7 mps 745 mmHg 70%
20:00 +10°C° 0.7 mm 6 mps 745 mmHg 74%
21:00 +9°C° 0.7 mm 5 mps 745 mmHg 78%
22:00 +9°C° 0.3 mm 6 mps 745 mmHg 76%
23:00 +8°C° 0.3 mm 6 mps 745 mmHg 74%

Day after tomorrow, 18 April, Sunday

Time Temperature Precipitation Wind Pressure Humidity
00:00 +6°C° 0.3 mm 7 mps 745 mmHg 72%
01:00 +6°C° 0 mm 7 mps 745 mmHg 70%
02:00 +5°C° 0 mm 7 mps 745 mmHg 67%
03:00 +5°C° 0 mm 7 mps 745 mmHg 65%
04:00 +5°C° 0 mm 7 mps 745 mmHg 69%
05:00 +4°C° 0 mm 7 mps 744 mmHg 73%
06:00 +4°C° 0 mm 7 mps 744 mmHg 76%
07:00 +4°C° 0.1 mm 7 mps 745 mmHg 79%
08:00 +4°C° 0.1 mm 6 mps 745 mmHg 81%
09:00 +4°C° 0.1 mm 6 mps 745 mmHg 83%
10:00 +6°C° 0 mm 5 mps 746 mmHg 80%
11:00 +7°C° 0 mm 4 mps 746 mmHg 77%
12:00 +9°C° 0 mm 3 mps 747 mmHg 74%
13:00 +8°C° 0.2 mm 5 mps 747 mmHg 75%
14:00 +8°C° 0.2 mm 6 mps 747 mmHg 76%
15:00 +8°C° 0.2 mm 7 mps 747 mmHg 77%
16:00 +7°C° 0.1 mm 6 mps 747 mmHg 78%
17:00 +7°C° 0.1 mm 5 mps 747 mmHg 79%
18:00 +6°C° 0.1 mm 5 mps 747 mmHg 80%
19:00 +6°C° 0 mm 5 mps 747 mmHg 80%
20:00 +6°C° 0 mm 5 mps 747 mmHg 80%
21:00 +6°C° 0 mm 5 mps 747 mmHg 80%
22:00 +5°C° 0 mm 5 mps 747 mmHg 81%
23:00 +5°C° 0 mm 5 mps 747 mmHg 81%

19 April, Monday

Time Temperature Precipitation Wind Pressure Humidity
00:00 +3°C° 0 mm 6 mps 747 mmHg 81%
01:00 +3°C° 0 mm 6 mps 747 mmHg 84%
02:00 +3°C° 0 mm 6 mps 747 mmHg 86%
03:00 +3°C° 0 mm 5 mps 747 mmHg 89%
04:00 +3°C° 0 mm 5 mps 747 mmHg 89%
05:00 +3°C° 0 mm 5 mps 748 mmHg 89%
06:00 +3°C° 0 mm 5 mps 748 mmHg 89%
07:00 +3°C° 0 mm 6 mps 748 mmHg 89%
08:00 +3°C° 0 mm 6 mps 748 mmHg 88%
09:00 +3°C° 0 mm 6 mps 748 mmHg 88%
10:00 +4°C° 0.1 mm 6 mps 748 mmHg 86%
11:00 +4°C° 0.1 mm 6 mps 748 mmHg 84%
12:00 +5°C° 0.1 mm 5 mps 749 mmHg 83%
13:00 +5°C° 0.1 mm 6 mps 749 mmHg 82%
14:00 +5°C° 0.1 mm 6 mps 749 mmHg 81%
15:00 +5°C° 0.1 mm 6 mps 749 mmHg 80%
16:00 +5°C° 0.2 mm 6 mps 749 mmHg 83%
17:00 +4°C° 0.2 mm 6 mps 749 mmHg 85%
18:00 +4°C° 0.2 mm 6 mps 749 mmHg 88%
19:00 +4°C° 0.3 mm 6 mps 749 mmHg 85%
20:00 +4°C° 0.3 mm 6 mps 749 mmHg 82%
21:00 +4°C° 0.3 mm 6 mps 749 mmHg 79%
22:00 +4°C° 0.1 mm 6 mps 748 mmHg 78%
23:00 +3°C° 0.1 mm 6 mps 748 mmHg 77%

20 April, Tuesday

Time Temperature Precipitation Wind Pressure Humidity
00:00 +2°C° 0.1 mm 6 mps 748 mmHg 76%
01:00 +2°C° 0.1 mm 6 mps 748 mmHg 77%
02:00 +2°C° 0.1 mm 6 mps 748 mmHg 79%
03:00 +1°C° 0.1 mm 6 mps 748 mmHg 80%
04:00 +1°C° 0 mm 6 mps 747 mmHg 80%
05:00 0°C° 0 mm 7 mps 747 mmHg 80%
06:00 -1°C° 0 mm 7 mps 746 mmHg 81%
07:00 0°C° 0 mm 7 mps 746 mmHg 80%
08:00 0°C° 0 mm 8 mps 746 mmHg 80%
09:00 +1°C° 0 mm 8 mps 746 mmHg 80%
10:00 0°C° 0 mm 8 mps 745 mmHg 81%
11:00 0°C° 0 mm 9 mps 744 mmHg 82%
12:00 0°C° 0 mm 9 mps 744 mmHg 83%
13:00 0°C° 0.8 mm 9 mps 743 mmHg 86%
14:00 0°C° 0.8 mm 10 mps 742 mmHg 88%
15:00 0°C° 0.8 mm 10 mps 741 mmHg 91%
16:00 -1°C° 3.1 mm 11 mps 740 mmHg 92%
17:00 -1°C° 3.1 mm 11 mps 739 mmHg 93%
18:00 0°C° 3.1 mm 12 mps 738 mmHg 94%
19:00 +1°C° 1.4 mm 11 mps 738 mmHg 94%
20:00 +1°C° 1.4 mm 11 mps 738 mmHg 94%
21:00 +2°C° 1.4 mm 10 mps 738 mmHg 93%
22:00 +2°C° 0.5 mm 10 mps 737 mmHg 93%
23:00 +2°C° 0.5 mm 9 mps 737 mmHg 93%

21 April, Wednesday

Time Temperature Precipitation Wind Pressure Humidity
00:00 +2°C° 0.5 mm 9 mps 737 mmHg 93%
01:00 +3°C° 0.4 mm 9 mps 736 mmHg 93%
02:00 +3°C° 0.4 mm 9 mps 736 mmHg 94%
03:00 +3°C° 0.4 mm 9 mps 736 mmHg 94%
04:00 +4°C° 0.5 mm 8 mps 736 mmHg 94%
05:00 +4°C° 0.5 mm 8 mps 735 mmHg 94%
06:00 +4°C° 0.5 mm 8 mps 735 mmHg 94%
07:00 +4°C° 0.2 mm 8 mps 735 mmHg 93%
08:00 +5°C° 0.2 mm 8 mps 735 mmHg 93%
09:00 +5°C° 0.2 mm 8 mps 735 mmHg 92%
10:00 +5°C° 0.2 mm 8 mps 735 mmHg 91%
11:00 +5°C° 0.2 mm 8 mps 735 mmHg 90%
12:00 +5°C° 0.2 mm 8 mps 735 mmHg 90%
13:00 +5°C° 0.2 mm 8 mps 735 mmHg 89%
14:00 +5°C° 0.2 mm 8 mps 735 mmHg 88%
15:00 +3°C° 0.2 mm 9 mps 736 mmHg 87%
16:00 +4°C° 0.1 mm 8 mps 736 mmHg 87%
17:00 +4°C° 0.1 mm 8 mps 736 mmHg 87%
18:00 +2°C° 0.1 mm 8 mps 737 mmHg 87%
19:00 +2°C° 0.3 mm 8 mps 737 mmHg 89%
20:00 +2°C° 0.3 mm 8 mps 738 mmHg 91%
21:00 +1°C° 0.3 mm 8 mps 738 mmHg 93%
22:00 +1°C° 0.1 mm 8 mps 738 mmHg 91%
23:00 +2°C° 0.1 mm 8 mps 739 mmHg 90%
Show more

We Need Your Consent

Meteoprog and our Service Providers may store and access personal data such as cookies, device identifiers or other similar technologies on your device and process such data to personalise content and ads, as well as provide social media features and to analyse the traffic.

  • Store and/or access information on your device

    Cookies, device identifiers or other information can be stored or accessed on your device for the purposes indicated above.

  • Personalised ads and content, ad and content measurement, audience insights, and products development

    Ads and content can be personalised based on a profile. More data can be added to better personalise ads and content. Ad and content performance can be measured. Insights about the audience who saw the ads and content can be derived. Such data can be used to develop or improve user’s experience, systems and software.

By clicking ‘I Agree’ you will allow the use of indicated cookies, device identifiers, web beacons or other similar technologies. Your settings can be changed in the browser on your device.

For certain purposes, legitimate interests may be relied on, rather than consent. You can read more about this in our Privacy and Cookie Policy.